Time,TemperatureF,DewpointF,PressureIn,WindDirection,WindDirectionDegrees,WindSpeedMPH,WindSpeedGustMPH,Humidity,HourlyPrecipIn,Conditions,Clouds,dailyrainin,SoftwareType,DateUTC
2013-03-03 00:02:00,36.0,-99.9,-100.00,NW,317,0.0,2.0,-999,-99.99,,,-99.99,,2013-03-03 06:02:00,
2013-03-03 00:11:00,36.0,-99.9,-100.00,NW,317,0.0,2.0,-999,-99.99,,,-99.99,,2013-03-03 06:11:00,
2013-03-03 00:22:00,36.0,-99.9,-100.00,West,264,0.0,3.0,-999,-99.99,,,-99.99,,2013-03-03 06:22:00,
2013-03-03 00:32:00,36.0,-99.9,-100.00,NNW,329,0.0,0.0,-999,-99.99,,,-99.99,,2013-03-03 06:32:00,
2013-03-03 00:42:00,36.0,-99.9,-100.00,NNW,329,0.0,0.0,-999,-99.99,,,-99.99,,2013-03-03 06:42:00,
2013-03-03 00:52:00,36.0,-99.9,-100.00,West,271,0.0,0.0,-999,-99.99,,,-99.99,,2013-03-03 06:52:00,
2013-03-03 01:01:00,36.0,-99.9,-100.00,NNE,16,0.0,0.0,-999,-99.99,,,-99.99,,2013-03-03 07:01:00,
2013-03-03 01:11:00,36.0,-99.9,-100.00,NNE,16,0.0,0.0,-999,-99.99,,,-99.99,,2013-03-03 07:11:00,
2013-03-03 01:22:00,35.0,-99.9,-100.00,West,277,0.0,1.0,-999,-99.99,,,-99.99,,2013-03-03 07:22:00,
2013-03-03 01:32:00,35.0,-99.9,-100.00,West,277,0.0,0.0,-999,-99.99,,,-99.99,,2013-03-03 07:32:00,
2013-03-03 01:42:00,35.0,-99.9,-100.00,West,277,0.0,0.0,-999,-99.99,,,-99.99,,2013-03-03 07:42:00,
2013-03-03 01:52:00,35.0,-99.9,-100.00,ENE,77,0.0,2.0,-999,-99.99,,,-99.99,,2013-03-03 07:52:00,
2013-03-03 02:01:00,35.0,-99.9,-100.00,ENE,77,0.0,0.0,-999,-99.99,,,-99.99,,2013-03-03 08:01:00,
2013-03-03 02:11:00,35.0,-99.9,-100.00,ENE,77,0.0,0.0,-999,-99.99,,,-99.99,,2013-03-03 08:11:00,
2013-03-03 02:21:00,35.0,-99.9,-100.00,NW,305,0.0,1.0,-999,-99.99,,,-99.99,,2013-03-03 08:21:00,
2013-03-03 02:32:00,35.0,-99.9,-100.00,NNW,330,0.0,3.0,-999,-99.99,,,-99.99,,2013-03-03 08:32:00,
2013-03-03 02:42:00,35.0,-99.9,-100.00,NNW,330,0.0,3.0,-999,-99.99,,,-99.99,,2013-03-03 08:42:00,
2013-03-03 02:54:00,34.0,-99.9,-100.00,NNW,344,0.0,0.0,-999,-99.99,,,-99.99,,2013-03-03 08:54:00,
2013-03-03 03:02:00,33.0,-99.9,-100.00,NNW,344,0.0,0.0,-999,-99.99,,,-99.99,,2013-03-03 09:02:00,
2013-03-03 03:12:00,33.0,-99.9,-100.00,NNW,344,0.0,0.0,-999,-99.99,,,-99.99,,2013-03-03 09:12:00,
2013-03-03 03:22:00,32.0,-99.9,-100.00,NNW,344,0.0,0.0,-999,-99.99,,,-99.99,,2013-03-03 09:22:00,
2013-03-03 03:32:00,31.0,-99.9,-100.00,NNW,344,0.0,0.0,-999,-99.99,,,-99.99,,2013-03-03 09:32:00,
2013-03-03 03:42:00,31.0,-99.9,-100.00,NNW,344,0.0,0.0,-999,-99.99,,,-99.99,,2013-03-03 09:42:00,
2013-03-03 03:52:00,30.0,-99.9,-100.00,NNW,344,0.0,0.0,-999,-99.99,,,-99.99,,2013-03-03 09:52:00,
2013-03-03 04:01:00,29.0,-99.9,-100.00,NNW,344,0.0,0.0,-999,-99.99,,,-99.99,,2013-03-03 10:01:00,
2013-03-03 04:12:00,29.0,-99.9,-100.00,NNW,344,0.0,0.0,-999,-99.99,,,-99.99,,2013-03-03 10:12:00,
2013-03-03 04:22:00,28.0,-99.9,-100.00,NNW,344,0.0,0.0,-999,-99.99,,,-99.99,,2013-03-03 10:22:00,
2013-03-03 04:32:00,28.0,-99.9,-100.00,NNW,344,0.0,0.0,-999,-99.99,,,-99.99,,2013-03-03 10:32:00,
2013-03-03 04:42:00,28.0,-99.9,-100.00,NNW,344,0.0,0.0,-999,-99.99,,,-99.99,,2013-03-03 10:42:00,
2013-03-03 04:52:00,28.0,-99.9,-100.00,NNW,344,0.0,0.0,-999,-99.99,,,-99.99,,2013-03-03 10:52:00,
2013-03-03 05:02:00,28.0,-99.9,-100.00,NNW,344,0.0,0.0,-999,-99.99,,,-99.99,,2013-03-03 11:02:00,
2013-03-03 05:11:00,28.0,-99.9,-100.00,NNW,344,0.0,0.0,-999,-99.99,,,-99.99,,2013-03-03 11:11:00,
2013-03-03 05:22:00,28.0,-99.9,-100.00,NNW,344,0.0,0.0,-999,-99.99,,,-99.99,,2013-03-03 11:22:00,
2013-03-03 05:32:00,28.0,-99.9,-100.00,NNW,344,0.0,0.0,-999,-99.99,,,-99.99,,2013-03-03 11:32:00,
2013-03-03 05:42:00,28.0,-99.9,-100.00,NNW,344,0.0,0.0,-999,-99.99,,,-99.99,,2013-03-03 11:42:00,
2013-03-03 05:53:00,28.0,-99.9,-100.00,NNW,344,0.0,0.0,-999,-99.99,,,-99.99,,2013-03-03 11:53:00,
2013-03-03 06:02:00,27.0,-99.9,-100.00,NNW,344,0.0,0.0,-999,-99.99,,,-99.99,,2013-03-03 12:02:00,
2013-03-03 06:11:00,27.0,-99.9,-100.00,NNW,344,0.0,0.0,-999,-99.99,,,-99.99,,2013-03-03 12:11:00,
2013-03-03 06:22:00,27.0,-99.9,-100.00,NNW,344,0.0,0.0,-999,-99.99,,,-99.99,,2013-03-03 12:22:00,
2013-03-03 06:32:00,27.0,-99.9,-100.00,NNW,344,0.0,0.0,-999,-99.99,,,-99.99,,2013-03-03 12:32:00,
2013-03-03 06:43:00,27.0,-99.9,-100.00,NNW,344,0.0,0.0,-999,-99.99,,,-99.99,,2013-03-03 12:43:00,
2013-03-03 06:53:00,27.0,-99.9,-100.00,NNW,344,0.0,0.0,-999,-99.99,,,-99.99,,2013-03-03 12:53:00,
2013-03-03 07:02:00,27.0,-99.9,-100.00,NNW,344,0.0,0.0,-999,-99.99,,,-99.99,,2013-03-03 13:02:00,
2013-03-03 07:11:00,27.0,-99.9,-100.00,NNW,344,0.0,0.0,-999,-99.99,,,-99.99,,2013-03-03 13:11:00,
2013-03-03 07:22:00,28.0,-99.9,-100.00,NNW,344,0.0,0.0,-999,-99.99,,,-99.99,,2013-03-03 13:22:00,
2013-03-03 07:32:00,28.0,-99.9,-100.00,NW,307,0.0,0.0,-999,-99.99,,,-99.99,,2013-03-03 13:32:00,
2013-03-03 07:42:00,28.0,-99.9,-100.00,NW,307,0.0,0.0,-999,-99.99,,,-99.99,,2013-03-03 13:42:00,
2013-03-03 07:52:00,31.0,-99.9,-100.00,WNW,303,2.0,2.0,-999,-99.99,,,-99.99,,2013-03-03 13:52:00,
2013-03-03 08:02:00,31.0,-99.9,-100.00,West,275,0.0,2.0,-999,-99.99,,,-99.99,,2013-03-03 14:02:00,
2013-03-03 08:11:00,31.0,-99.9,-100.00,West,275,0.0,2.0,-999,-99.99,,,-99.99,,2013-03-03 14:11:00,
2013-03-03 08:22:00,32.0,-99.9,-100.00,NW,312,3.0,4.0,-999,-99.99,,,-99.99,,2013-03-03 14:22:00,
2013-03-03 08:32:00,33.0,-99.9,-100.00,NNE,12,0.0,4.0,-999,-99.99,,,-99.99,,2013-03-03 14:32:00,
2013-03-03 08:42:00,33.0,-99.9,-100.00,NNE,12,0.0,4.0,-999,-99.99,,,-99.99,,2013-03-03 14:42:00,
2013-03-03 08:52:00,35.0,-99.9,-100.00,NNE,26,2.0,6.0,-999,-99.99,,,-99.99,,2013-03-03 14:52:00,
2013-03-03 09:02:00,35.0,-99.9,-100.00,NE,35,3.0,3.0,-999,-99.99,,,-99.99,,2013-03-03 15:02:00,
2013-03-03 09:11:00,35.0,-99.9,-100.00,NE,35,3.0,3.0,-999,-99.99,,,-99.99,,2013-03-03 15:11:00,
2013-03-03 09:22:00,35.0,-99.9,-100.00,NW,326,5.0,5.0,-999,-99.99,,,-99.99,,2013-03-03 15:22:00,
2013-03-03 09:33:00,36.0,-99.9,-100.00,NNW,343,2.0,6.0,-999,-99.99,,,-99.99,,2013-03-03 15:33:00,
2013-03-03 09:42:00,36.0,-99.9,-100.00,NNW,343,2.0,6.0,-999,-99.99,,,-99.99,,2013-03-03 15:42:00,
2013-03-03 09:52:00,38.0,-99.9,-100.00,North,8,0.0,5.0,-999,-99.99,,,-99.99,,2013-03-03 15:52:00,
2013-03-03 10:02:00,38.0,-99.9,-100.00,West,261,1.0,6.0,-999,-99.99,,,-99.99,,2013-03-03 16:02:00,
2013-03-03 10:12:00,38.0,-99.9,-100.00,West,261,1.0,6.0,-999,-99.99,,,-99.99,,2013-03-03 16:12:00,
2013-03-03 10:22:00,38.0,-99.9,-100.00,NNW,334,4.0,5.0,-999,-99.99,,,-99.99,,2013-03-03 16:22:00,
2013-03-03 10:32:00,38.0,-99.9,-100.00,NNW,334,4.0,5.0,-999,-99.99,,,-99.99,,2013-03-03 16:32:00,
2013-03-03 10:42:00,38.0,-99.9,-100.00,NNW,334,4.0,5.0,-999,-99.99,,,-99.99,,2013-03-03 16:42:00,
2013-03-03 10:52:00,40.0,-99.9,-100.00,ENE,68,3.0,8.0,-999,-99.99,,,-99.99,,2013-03-03 16:52:00,
2013-03-03 11:02:00,41.0,-99.9,-100.00,ENE,74,2.0,6.0,-999,-99.99,,,-99.99,,2013-03-03 17:02:00,
2013-03-03 11:12:00,42.0,-99.9,-100.00,ENE,66,4.0,6.0,-999,-99.99,,,-99.99,,2013-03-03 17:12:00,
2013-03-03 11:22:00,42.0,-99.9,-100.00,ENE,66,4.0,6.0,-999,-99.99,,,-99.99,,2013-03-03 17:22:00,
2013-03-03 11:32:00,42.0,-99.9,-100.00,ENE,66,4.0,6.0,-999,-99.99,,,-99.99,,2013-03-03 17:32:00,
2013-03-03 11:42:00,42.0,-99.9,-100.00,ENE,66,4.0,6.0,-999,-99.99,,,-99.99,,2013-03-03 17:42:00,
2013-03-03 11:52:00,42.0,-99.9,-100.00,ENE,66,4.0,6.0,-999,-99.99,,,-99.99,,2013-03-03 17:52:00,
2013-03-03 12:02:00,46.0,-99.9,-100.00,NNW,330,2.0,6.0,-999,-99.99,,,-99.99,,2013-03-03 18:02:00,
2013-03-03 12:11:00,46.0,-99.9,-100.00,NNW,330,2.0,6.0,-999,-99.99,,,-99.99,,2013-03-03 18:11:00,
2013-03-03 12:22:00,46.0,-99.9,-100.00,NNW,330,2.0,6.0,-999,-99.99,,,-99.99,,2013-03-03 18:22:00,
2013-03-03 12:32:00,46.0,-99.9,-100.00,NE,42,1.0,5.0,-999,-99.99,,,-99.99,,2013-03-03 18:32:00,
2013-03-03 12:42:00,46.0,-99.9,-100.00,NE,42,1.0,5.0,-999,-99.99,,,-99.99,,2013-03-03 18:42:00,
2013-03-03 12:53:00,47.0,-99.9,-100.00,NW,306,0.0,3.0,-999,-99.99,,,-99.99,,2013-03-03 18:53:00,
2013-03-03 13:02:00,47.0,-99.9,-100.00,NW,306,0.0,3.0,-999,-99.99,,,-99.99,,2013-03-03 19:02:00,
2013-03-03 13:11:00,49.0,-99.9,-100.00,East,91,2.0,5.0,-999,-99.99,,,-99.99,,2013-03-03 19:11:00,
2013-03-03 13:22:00,49.0,-99.9,-100.00,East,91,2.0,5.0,-999,-99.99,,,-99.99,,2013-03-03 19:22:00,
2013-03-03 13:32:00,49.0,-99.9,-100.00,East,91,2.0,5.0,-999,-99.99,,,-99.99,,2013-03-03 19:32:00,
2013-03-03 13:42:00,49.0,-99.9,-100.00,East,91,2.0,5.0,-999,-99.99,,,-99.99,,2013-03-03 19:42:00,
2013-03-03 13:52:00,49.0,-99.9,-100.00,North,7,0.0,5.0,-999,-99.99,,,-99.99,,2013-03-03 19:52:00,
2013-03-03 14:02:00,50.0,-99.9,-100.00,North,8,0.0,5.0,-999,-99.99,,,-99.99,,2013-03-03 20:02:00,
2013-03-03 14:12:00,50.0,-99.9,-100.00,North,8,0.0,5.0,-999,-99.99,,,-99.99,,2013-03-03 20:12:00,
2013-03-03 14:22:00,50.0,-99.9,-100.00,NW,322,2.0,5.0,-999,-99.99,,,-99.99,,2013-03-03 20:22:00,
2013-03-03 14:32:00,50.0,-99.9,-100.00,NW,322,2.0,5.0,-999,-99.99,,,-99.99,,2013-03-03 20:32:00,
2013-03-03 14:43:00,50.0,-99.9,-100.00,NW,322,2.0,5.0,-999,-99.99,,,-99.99,,2013-03-03 20:43:00,
2013-03-03 14:53:00,50.0,-99.9,-100.00,NW,322,2.0,5.0,-999,-99.99,,,-99.99,,2013-03-03 20:53:00,
2013-03-03 15:02:00,50.0,-99.9,-100.00,NW,322,2.0,5.0,-999,-99.99,,,-99.99,,2013-03-03 21:02:00,
2013-03-03 15:52:00,51.0,-99.9,-100.00,NNW,330,0.0,7.0,-999,-99.99,,,-99.99,,2013-03-03 21:52:00,
2013-03-03 15:53:00,51.0,-99.9,-100.00,WSW,243,0.0,4.0,-999,-99.99,,,-99.99,,2013-03-03 21:53:00,
2013-03-03 16:02:00,52.0,-99.9,-100.00,NW,315,0.0,3.0,-999,-99.99,,,-99.99,,2013-03-03 22:02:00,
2013-03-03 16:11:00,52.0,-99.9,-100.00,NW,315,0.0,3.0,-999,-99.99,,,-99.99,,2013-03-03 22:11:00,
2013-03-03 16:22:00,51.0,-99.9,-100.00,WSW,243,0.0,4.0,-999,-99.99,,,-99.99,,2013-03-03 22:22:00,
2013-03-03 16:32:00,51.0,-99.9,-100.00,WSW,243,0.0,4.0,-999,-99.99,,,-99.99,,2013-03-03 22:32:00,
2013-03-03 16:42:00,51.0,-99.9,-100.00,WSW,243,0.0,4.0,-999,-99.99,,,-99.99,,2013-03-03 22:42:00,
2013-03-03 17:52:00,48.0,-99.9,-100.00,ENE,57,0.0,0.0,-999,-99.99,,,-99.99,,2013-03-03 23:52:00,
2013-03-03 18:02:00,46.0,-99.9,-100.00,ENE,57,0.0,0.0,-999,-99.99,,,-99.99,,2013-03-04 00:02:00,
2013-03-03 18:11:00,46.0,-99.9,-100.00,ENE,57,0.0,0.0,-999,-99.99,,,-99.99,,2013-03-04 00:11:00,
2013-03-03 18:22:00,45.0,-99.9,-100.00,ENE,57,0.0,0.0,-999,-99.99,,,-99.99,,2013-03-04 00:22:00,
2013-03-03 18:32:00,43.0,-99.9,-100.00,ENE,57,0.0,0.0,-999,-99.99,,,-99.99,,2013-03-04 00:32:00,
2013-03-03 18:42:00,43.0,-99.9,-100.00,ENE,57,0.0,0.0,-999,-99.99,,,-99.99,,2013-03-04 00:42:00,
2013-03-03 18:52:00,42.0,-99.9,-100.00,ENE,57,0.0,0.0,-999,-99.99,,,-99.99,,2013-03-04 00:52:00,
2013-03-03 19:02:00,40.0,-99.9,-100.00,ENE,57,0.0,0.0,-999,-99.99,,,-99.99,,2013-03-04 01:02:00,
2013-03-03 19:12:00,40.0,-99.9,-100.00,ENE,57,0.0,0.0,-999,-99.99,,,-99.99,,2013-03-04 01:12:00,
2013-03-03 19:22:00,39.0,-99.9,-100.00,ENE,57,0.0,0.0,-999,-99.99,,,-99.99,,2013-03-04 01:22:00,
2013-03-03 19:32:00,39.0,-99.9,-100.00,ENE,57,0.0,0.0,-999,-99.99,,,-99.99,,2013-03-04 01:32:00,
2013-03-03 19:42:00,39.0,-99.9,-100.00,ENE,57,0.0,0.0,-999,-99.99,,,-99.99,,2013-03-04 01:42:00,
2013-03-03 19:52:00,37.0,-99.9,-100.00,ENE,57,0.0,0.0,-999,-99.99,,,-99.99,,2013-03-04 01:52:00,
2013-03-03 20:02:00,37.0,-99.9,-100.00,ENE,57,0.0,0.0,-999,-99.99,,,-99.99,,2013-03-04 02:02:00,
2013-03-03 20:11:00,36.0,-99.9,-100.00,ENE,57,0.0,0.0,-999,-99.99,,,-99.99,,2013-03-04 02:11:00,
2013-03-03 20:22:00,36.0,-99.9,-100.00,ENE,57,0.0,0.0,-999,-99.99,,,-99.99,,2013-03-04 02:22:00,
2013-03-03 20:32:00,35.0,-99.9,-100.00,ENE,57,0.0,0.0,-999,-99.99,,,-99.99,,2013-03-04 02:32:00,
2013-03-03 20:42:00,35.0,-99.9,-100.00,ENE,57,0.0,0.0,-999,-99.99,,,-99.99,,2013-03-04 02:42:00,
2013-03-03 20:53:00,35.0,-99.9,-100.00,ENE,57,0.0,0.0,-999,-99.99,,,-99.99,,2013-03-04 02:53:00,
2013-03-03 21:02:00,35.0,-99.9,-100.00,ENE,57,0.0,0.0,-999,-99.99,,,-99.99,,2013-03-04 03:02:00,
2013-03-03 21:12:00,35.0,-99.9,-100.00,ENE,57,0.0,0.0,-999,-99.99,,,-99.99,,2013-03-04 03:12:00,
2013-03-03 21:22:00,34.0,-99.9,-100.00,ENE,57,0.0,0.0,-999,-99.99,,,-99.99,,2013-03-04 03:22:00,
2013-03-03 21:32:00,34.0,-99.9,-100.00,ENE,57,0.0,0.0,-999,-99.99,,,-99.99,,2013-03-04 03:32:00,
2013-03-03 21:42:00,33.0,-99.9,-100.00,ENE,57,0.0,0.0,-999,-99.99,,,-99.99,,2013-03-04 03:42:00,
2013-03-03 21:53:00,33.0,-99.9,-100.00,ENE,57,0.0,0.0,-999,-99.99,,,-99.99,,2013-03-04 03:53:00,
2013-03-03 22:02:00,32.0,-99.9,-100.00,ENE,57,0.0,0.0,-999,-99.99,,,-99.99,,2013-03-04 04:02:00,
2013-03-03 22:11:00,32.0,-99.9,-100.00,ENE,57,0.0,0.0,-999,-99.99,,,-99.99,,2013-03-04 04:11:00,
2013-03-03 22:22:00,32.0,-99.9,-100.00,ENE,57,0.0,0.0,-999,-99.99,,,-99.99,,2013-03-04 04:22:00,
2013-03-03 22:32:00,31.0,-99.9,-100.00,ENE,57,0.0,0.0,-999,-99.99,,,-99.99,,2013-03-04 04:32:00,
2013-03-03 22:42:00,31.0,-99.9,-100.00,ENE,57,0.0,0.0,-999,-99.99,,,-99.99,,2013-03-04 04:42:00,
2013-03-03 22:52:00,31.0,-99.9,-100.00,ENE,57,0.0,0.0,-999,-99.99,,,-99.99,,2013-03-04 04:52:00,
2013-03-03 23:02:00,31.0,-99.9,-100.00,ENE,57,0.0,0.0,-999,-99.99,,,-99.99,,2013-03-04 05:02:00,
2013-03-03 23:11:00,31.0,-99.9,-100.00,ENE,57,0.0,0.0,-999,-99.99,,,-99.99,,2013-03-04 05:11:00,
2013-03-03 23:22:00,31.0,-99.9,-100.00,ENE,57,0.0,0.0,-999,-99.99,,,-99.99,,2013-03-04 05:22:00,
2013-03-03 23:32:00,31.0,-99.9,-100.00,ENE,57,0.0,0.0,-999,-99.99,,,-99.99,,2013-03-04 05:32:00,
2013-03-03 23:43:00,31.0,-99.9,-100.00,ENE,57,0.0,0.0,-999,-99.99,,,-99.99,,2013-03-04 05:43:00,
2013-03-03 23:52:00,31.0,-99.9,-100.00,ENE,57,0.0,0.0,-999,-99.99,,,-99.99,,2013-03-04 05:52:00,